STARLINK-30061 (55698 NORAD) Tracking and Keplerian Element Data

This shows tracking and keplerian element data for the satellite.

Feedback or suggestion? Click here.




ElementValue
Catalog55698
NameSTARLINK-30061
Epoch Orbit513
Epoch Day85.16667824
Epoch Year2023
RAAN126.947
Inclination42.9985
Eccentricity0.0001812
Argument of Perigee258.2217
Mean Anonmoly313.0163
Mean Motion15.67892443
Decay Rate0.00141933
L11 55698U 23026D 23085.16667824 .00141933 00000+0 12323-2 0 9997
L22 55698 42.9985 126.9470 0001812 258.2217 313.0163 15.67892443 5135



Live tracking and technical data element details for STARLINK-30061 (NORAD 55698). STARLINK-30061 can be tracked NOW for your location showing map with azimuth and elevation plus other details from your city location.







IsCatalogInMostPopularTable: catalog: 55698, numindb: 3
Update: records affected: 1



GetName: 55698 STARLINK-30061

Hit Count: updated at: Tue, 28 Mar 2023 02:56:24 GMT